TimeMDT,TemperatureF,Dew PointF,Humidity,Sea Level PressureIn,VisibilityMPH,Wind Direction,Wind SpeedMPH,Gust SpeedMPH,PrecipitationIn,Events,Conditions,WindDirDegrees,DateUTC
12:52 AM,35.1,16.0,46,29.80,10.0,SSW,11.5,-,N/A,,Clear,210,2014-03-26 06:52:00
1:52 AM,37.0,18.0,46,29.75,10.0,South,12.7,-,N/A,,Clear,190,2014-03-26 07:52:00
2:52 AM,36.0,21.9,57,29.73,10.0,South,13.8,-,N/A,,Clear,190,2014-03-26 08:52:00
3:52 AM,37.0,25.0,62,29.67,10.0,South,15.0,-,N/A,,Partly Cloudy,180,2014-03-26 09:52:00
4:52 AM,33.1,25.0,72,29.68,10.0,SSE,9.2,-,N/A,,Clear,160,2014-03-26 10:52:00
5:52 AM,32.0,27.0,82,29.68,10.0,SSE,9.2,-,N/A,,Scattered Clouds,150,2014-03-26 11:52:00
6:52 AM,28.9,26.1,89,29.72,10.0,NE,5.8,-,N/A,,Clear,40,2014-03-26 12:52:00
7:52 AM,36.0,30.0,79,29.75,10.0,SSW,3.5,-,N/A,,Partly Cloudy,200,2014-03-26 13:52:00
8:52 AM,43.0,30.0,60,29.73,10.0,SSW,8.1,-,N/A,,Scattered Clouds,200,2014-03-26 14:52:00
9:52 AM,48.9,26.1,41,29.69,10.0,South,10.4,-,N/A,,Mostly Cloudy,190,2014-03-26 15:52:00
10:52 AM,50.0,23.0,35,29.66,10.0,SSW,11.5,21.9,N/A,,Scattered Clouds,210,2014-03-26 16:52:00
11:42 AM,55.0,21.0,27,29.76,10.0,SW,21.9,28.8,N/A,,Mostly Cloudy,230,2014-03-26 17:42:00
11:52 AM,53.1,19.9,27,29.61,10.0,SW,18.4,26.5,N/A,,Mostly Cloudy,230,2014-03-26 17:52:00
12:52 PM,53.1,19.0,26,29.59,10.0,SW,21.9,33.4,N/A,,Mostly Cloudy,230,2014-03-26 18:52:00
1:52 PM,51.1,21.0,31,29.55,10.0,SW,18.4,27.6,N/A,,Mostly Cloudy,220,2014-03-26 19:52:00
2:03 PM,53.1,21.9,30,29.67,1.8,SW,29.9,40.3,N/A,,Haze,230,2014-03-26 20:03:00
2:08 PM,54.0,19.9,26,29.67,3.0,SW,28.8,40.3,N/A,,Haze,220,2014-03-26 20:08:00
2:52 PM,55.0,19.0,24,29.48,6.0,SW,26.5,39.1,N/A,,Haze,230,2014-03-26 20:52:00
3:33 PM,55.9,16.0,21,29.62,2.0,SW,34.5,44.9,N/A,,Haze,230,2014-03-26 21:33:00
3:40 PM,52.0,21.0,30,29.63,1.0,SW,31.1,49.5,N/A,,Haze,230,2014-03-26 21:40:00
3:46 PM,51.8,21.2,30,29.63,2.0,SW,24.2,41.4,N/A,,Haze,230,2014-03-26 21:46:00
3:47 PM,51.8,21.2,30,29.63,3.0,SW,21.9,41.4,N/A,,Haze,230,2014-03-26 21:47:00
3:52 PM,51.1,21.0,31,29.49,4.0,WSW,28.8,35.7,N/A,,Haze,240,2014-03-26 21:52:00
4:04 PM,50.0,21.9,33,29.62,1.5,SW,41.4,52.9,N/A,,Haze,230,2014-03-26 22:04:00
4:08 PM,48.9,21.9,35,29.62,0.5,SW,39.1,57.5,N/A,,Haze,230,2014-03-26 22:08:00
4:25 PM,45.0,28.9,53,29.63,1.0,WSW,31.1,55.2,0.00,Rain,Light Rain,240,2014-03-26 22:25:00
4:28 PM,46.0,28.9,51,29.62,3.0,WSW,28.8,48.3,0.00,Rain,Light Rain,240,2014-03-26 22:28:00
4:40 PM,45.0,30.0,56,29.61,10.0,SW,33.4,39.1,0.00,,Scattered Clouds,220,2014-03-26 22:40:00
4:52 PM,43.0,30.0,60,29.53,10.0,SSW,24.2,38.0,0.00,,Partly Cloudy,210,2014-03-26 22:52:00
5:52 PM,43.0,30.0,60,29.52,10.0,SSW,25.3,35.7,N/A,,Clear,200,2014-03-26 23:52:00
6:52 PM,44.1,27.0,51,29.51,10.0,South,20.7,29.9,N/A,,Overcast,190,2014-03-27 00:52:00
7:25 PM,42.1,28.0,58,29.58,9.0,West,17.3,29.9,N/A,,Overcast,280,2014-03-27 01:25:00
7:52 PM,41.0,28.9,62,29.48,10.0,NW,10.4,-,N/A,,Overcast,320,2014-03-27 01:52:00
8:52 PM,43.0,19.9,40,29.45,8.0,WSW,20.7,31.1,N/A,,Mostly Cloudy,240,2014-03-27 02:52:00
9:52 PM,39.9,21.9,49,29.46,10.0,WSW,17.3,-,N/A,,Mostly Cloudy,250,2014-03-27 03:52:00
10:52 PM,34.0,28.9,82,29.49,10.0,West,16.1,-,N/A,,Scattered Clouds,260,2014-03-27 04:52:00
11:52 PM,34.0,26.1,73,29.46,10.0,WSW,11.5,-,N/A,,Partly Cloudy,240,2014-03-27 05:52:00